Regional Weather Roundup
Issued by NWS Grand Forks, ND

Home | Current Version | Previous Version | Text Only | Print | Product List | Glossary Off
Versions: 1 2 3 4 5 6 7 8 9 10 11 12 13 14 15 16 17 18 19 20 21 22 23 24 25 26 27 28 29 30 31 32 33 34 35 36 37 38 39 40 41 42 43 44 45 46 47 48 49 50

000
ASUS43 KFGF 220031
RWRFGF
PRAIRIE TO PINES  WEATHER ROUNDUP
NATIONAL WEATHER SERVICE EASTERN NORTH DAKOTA/GRAND FORKS ND
700 PM CDT SUN SEP 21 2014

 **SATELLITE DATA USED TO AUGMENT SKY COVER AT AUTOMATED STATIONS**
 *****  WEATHER ACROSS EASTERN NORTH DAKOTA  *****

CITY           SKY/WX    TMP DP  RH WIND       PRES   REMARKS
GRAND FORKS    PTCLDY    64  49  57 E5        30.19R
6HR MIN TEMP:  62; 6HR MAX TEMP:  68;

GRAND FRKS AFB CLEAR     63  52  67 SE5       30.19S
GRAND FRKS NWS   N/A     57 N/A N/A E6          N/A
DEVILS LAKE    CLEAR     64  48  55 S7        30.17F
6HR MIN TEMP:  61; 6HR MAX TEMP:  66;

FARGO          CLEAR     62  51  67 E7        30.20S
WAHPETON ARPT  CLEAR     59  48  67 E5        30.22R
$$

 ***** WEATHER ACROSS CENTRAL AND WESTERN NORTH DAKOTA  *****

CITY           SKY/WX    TMP DP  RH WIND       PRES   REMARKS
BISMARCK       CLEAR     71  43  36 CALM      30.22S
6HR MIN TEMP:  69; 6HR MAX TEMP:  75;

MINOT          CLEAR     68  40  35 SW6       30.18S
6HR MIN TEMP:  67; 6HR MAX TEMP:  73;

JAMESTOWN      CLEAR     64  48  56 W5        30.20S
6HR MIN TEMP:  64; 6HR MAX TEMP:  68;

MINOT AFB      CLEAR     70  42  35 W5        30.17S
GARRISON         N/A     66  44  45 SW8       30.20S
WILLISTON      CLEAR     71  34  25 S3        30.18F
6HR MIN TEMP:  68; 6HR MAX TEMP:  73;

DICKINSON      CLEAR     70  38  31 NE3       30.21F
6HR MIN TEMP:  66; 6HR MAX TEMP:  73;

HETTINGER      CLEAR     70  35  27 SE3       30.24F
6HR MIN TEMP:  66; 6HR MAX TEMP:  73;

$$

 *****  OTHER AIRPORT OBSERVATIONS IN OUR AREA  *****

CITY           SKY/WX    TMP DP  RH WIND       PRES   REMARKS
WALHALLA         N/A     64  50  59 CALM      30.16S
GRAFTON AIRPOR FAIR      59  54  82 SE6       30.17F
VALLEY CITY AR FAIR      64  48  55 W3        30.20F
CANDO          FAIR      61  46  59 W7        30.19R
CAVALIER APRT  FAIR      63  52  67 SE5       30.16F
GWINNER        CLEAR     64  46  52 CALM      30.23R
ROLLA          FAIR      61  46  59 W6        30.20R
 ***** THE ABOVE OBSERVATIONS ARE NON NWS ARE NOT QUALITY
       CONTROLLED AND MAY MIS-REPORT RAIN FOR SNOW...
$$

  *****  WEATHER ACROSS NORTHERN MINNESOTA  *****

CITY           SKY/WX    TMP DP  RH WIND       PRES   REMARKS
FLAG ISLAND    CLOUDY    57  50  77 W6        30.15S
WARROAD        CLOUDY    55  52  88 CALM      30.18F
ROSEAU         CLOUDY    57  52  82 CALM      30.18S
HALLOCK        CLEAR     63  48  59 CALM      30.17S
THF RVR FALLS  MOCLDY    59  50  72 SW3       30.20F
6HR MIN TEMP:  55; 6HR MAX TEMP:  61;

BAUDETTE       CLEAR     57  49  74 VRB3      30.17S
6HR MIN TEMP:  57; 6HR MAX TEMP:  63;

WASKISH        PTCLDY    57  52  82 CALM      30.19R
CROOKSTON      CLEAR     61  48  63 CALM      30.20S
STEPHEN NDAWN    N/A     63  52  67 S2          N/A
GREENBUSH NDAW   N/A     59  52  77 SW3         N/A
$$
  *****  WEATHER ACROSS CENTRAL AND WEST MINNESOTA  *****

CITY           SKY/WX    TMP DP  RH WIND       PRES   REMARKS
FOSSTON        CLOUDY    57  48  72 CALM      30.22S
BEMIDJI        CLOUDY    56  49  76 W6        30.21S
PARK RAPIDS    CLEAR     52  48  86 NW8       30.21R
6HR MIN TEMP:  52; 6HR MAX TEMP:  62;

ELBOW LAKE     FAIR      58  49  72 CALM      30.22S
6HR MIN TEMP:  58; 6HR MAX TEMP:  62;

WADENA         CLOUDY    55  48  76 CALM      30.22R
DETROIT LAKES  CLEAR     55  48  76 CALM      30.24R
MOORHEAD       CLEAR     61  54  77 E3        30.22S
FERGUS FALLS   CLEAR     57  46  67 CALM      30.22S
MORRIS MN      CLEAR     57  50  77 N6        30.22S
STAPLES        CLEAR     55  46  71 NW6       30.21R
$$
  *****  WEATHER ELSEWHERE ACROSS MINNESOTA  *****

CITY           SKY/WX    TMP DP  RH WIND       PRES   REMARKS
DULUTH         PTCLDY    59  42  53 NW6       30.14R
6HR MIN TEMP:  59; 6HR MAX TEMP:  64;

INTRNTL FALLS  CLEAR     54  48  80 W5        30.16R
6HR MIN TEMP:  54; 6HR MAX TEMP:  64;

ELY            CLEAR     52  43  71 NW3       30.16R
CLOQUET        CLEAR     55  45  67 W5        30.16R
WHEATON        CLEAR     61  48  63 CALM      30.24R
BRAINERD       CLEAR     58  49  72 NW3       30.19S
6HR MIN TEMP:  58; 6HR MAX TEMP:  64;

HIBBING        PTCLDY    57  45  64 NW5       30.16R
6HR MIN TEMP:  57; 6HR MAX TEMP:  65;

ALEXANDRIA     CLEAR     58  48  69 N7        30.24R
6HR MIN TEMP:  58; 6HR MAX TEMP:  61;

SAINT CLOUD    PTCLDY    64  50  60 NW9       30.18R
6HR MIN TEMP:  64; 6HR MAX TEMP:  69;

MINNEAPOLIS    PTCLDY    64  45  49 NW8       30.16R
6HR MIN TEMP:  61; 6HR MAX TEMP:  67;

$$

  *****  WEATHER ACROSS SOUTH DAKOTA  *****

CITY           SKY/WX    TMP DP  RH WIND       PRES   REMARKS
SIOUX FALLS    PTCLDY    64  47  53 N6        30.23R
6HR MIN TEMP:  64; 6HR MAX TEMP:  72;

BROOKINGS      NOT AVBL
WATERTOWN      CLEAR     62  45  53 NW7       30.23S
6HR MIN TEMP:  62; 6HR MAX TEMP:  68;

HURON          CLEAR     67  46  47 N6        30.23S
6HR MIN TEMP:  67; 6HR MAX TEMP:  73;

SISSETON         N/A     64  50  60 N5        30.21S
ABERDEEN       CLEAR     68  48  48 CALM      30.23R
6HR MIN TEMP:  67; 6HR MAX TEMP:  72;

MITCHELL       CLEAR     67  48  50 N6        30.24S
PIERRE         CLEAR     69  44  40 W6        30.22F
6HR MIN TEMP:  68; 6HR MAX TEMP:  73;

MOBRIDGE       CLEAR     69  48  47 E5        30.21F
RAPID CITY     CLEAR     69  39  33 SE9       30.26R
6HR MIN TEMP:  68; 6HR MAX TEMP:  74;

$$

  *****  SOME WEATHER IN NEARBY STATES *****

CITY           SKY/WX    TMP DP  RH WIND       PRES   REMARKS
GLASGOW MT     SUNNY     73  37  27 SE9       30.14F
6HR MIN TEMP:  67; 6HR MAX TEMP:  75;

GREAT FALLS MT SUNNY     75  47  36 NE10      30.05F
6HR MIN TEMP:  67; 6HR MAX TEMP:  77;

CHEYENNE WY    CLOUDY    66  43  43 SE8       30.34R
6HR MIN TEMP:  65; 6HR MAX TEMP:  71;

SCOTTSBLUFF NE MOCLDY    71  42  35 E14       30.27S
6HR MIN TEMP:  68; 6HR MAX TEMP:  76;

OMAHA NE       PTCLDY    67  49  52 N9        30.21S
6HR MIN TEMP:  67; 6HR MAX TEMP:  73;

DES MOINES IA  PTCLDY    66  48  52 N7        30.17R
6HR MIN TEMP:  66; 6HR MAX TEMP:  73;

DAVENPORT IA   PTCLDY    61  49  64 NW6       30.11R
6HR MIN TEMP:  61; 6HR MAX TEMP:  66;

CHICAGO IL     MOCLDY    60  50  69 NE7       30.06R
6HR MIN TEMP:  60; 6HR MAX TEMP:  69;

EAU CLAIRE WI  CLEAR     59  45  59 NW5       30.14R
6HR MIN TEMP:  59; 6HR MAX TEMP:  65;

LA CROSSE WI   CLEAR     61  46  57 N8        30.13R
6HR MIN TEMP:  61; 6HR MAX TEMP:  69;

$$

  *****  SOME NATIONAL WEATHER *****

CITY           SKY/WX    TMP DP  RH WIND       PRES   REMARKS
LA GUARDIA NY  MOCLDY    74  66  76 S7        29.62R
6HR MIN TEMP:  73; 6HR MAX TEMP:  77;

RALEIGH NC     PTCLDY    76  64  66 SW8       29.82R
6HR MIN TEMP:  76; 6HR MAX TEMP:  87;

ATLANTA GA     PTCLDY    80  60  50 SW6       29.95S
6HR MIN TEMP:  80; 6HR MAX TEMP:  87;

NEW ORLEANS LA PTCLDY    84  66  54 E7        29.97S
6HR MIN TEMP:  84; 6HR MAX TEMP:  88;

OKLAHOMA CITY  LGT RAIN  76  54  46 NE12      30.13R
6HR MIN TEMP:  76; 6HR MAX TEMP:  89; 6HR PCP: TRACE;

ALBUQUERQUE NM CLOUDY    76  54  46 SE18      30.23S
6HR MIN TEMP:  76; 6HR MAX TEMP:  82;

SALT LAKE CITY CLOUDY    67  58  72 SE9       30.12F
6HR MIN TEMP:  60; 6HR MAX TEMP:  68; 6HR PCP:  0.39;

LOS ANGELES CA MOSUNNY   72  61  68 W16       29.93F


USA.gov is the U.S. government's official web portal to all federal, state and local government web resources and services.